sat.trackr.live / text

‹ back to catalog

STARLINK-37494

NORAD 68905 · 2026-097L

PAYLOAD ACTIVE UNKNOWN

§ Identity

Operator
Country
US
Launch date
2026-04-30
Launch site
AFWTR
Launch vehicle
Mass (kg)
RCS (m²)

Purposes: comms

External: N2YO · Heavens-Above · Gunter

§ Orbital elements

Epoch: 2026-05-25T01:21:52.333344Z

Period
92.95 min
Inclination
97.2862°
Eccentricity
0.0001253
Mean motion
15.49212381 rev/d
Perigee alt
418.2 km
Apogee alt
419.9 km
Semi-major
6,797.2 km
B*
4.4898e-4
RAAN
340.7842°
Arg perigee
79.8000°
Mean anomaly
280.3392°
Rev number
393

§ Raw data

STARLINK-374941 68905U 26097L   26145.05685571  .00024424  00000+0  44898-3 0  99982 68905  97.2862 340.7842 0001253  79.8000 280.3392 15.49212381  3935

JSON: /api/v1/satellites/68905 · /tle

For live sub-satellite position, see the globe view (requires WebGL).

§ Visibility from observer

Set your observer location to see the next 7 days of passes ≥ 10°. The values pass through the URL so the page stays shareable.

No JS? Fill the form by hand. The geolocation button needs JavaScript.